User: anonymous   Login
Location: Ab? ar R?sh Ba?r?
(24.1861°N, 32.8847°E)
Time: 16:59:43
(UTC+00:00)
Language:

Cosmos 839 Rocket - Orbit

View from above orbital plane
View from above orbital plane
View from above satellite
View from above satellite

Ground track
Ground track

The orbit data is extracted from the following two-line orbital elements,

1 09013U 76067B   22021.89858205 -.00000054  00000-0  20099-5 0  9996
2 09013  65.8667 345.0276 0708578 135.7153 230.2827 12.35346080 53778
Epoch (UTC): 21 January 2022 21:33:57
Eccentricity: 0.0708578
inclination: 65.8667°
perigee height: 966 km
apogee height: 2086 km
right ascension of ascending node: 345.0276°
argument of perigee: 135.7153°
revolutions per day: 12.35346080
mean anomaly at epoch: 230.2827°
orbit number at epoch: 5377

The dashed part of the orbit path shows where the satellite is in the earth's shadow,  

DLR